Location: Bukit Nyuki
(2.5885°N, 113.7476°E)
Time: 15:13:18
(UTC+00:00)

Cosmos 1741 Rocket - Pass Details

Date: 18 May 2021
Orbit: 762 x 782 km, 74.0° (Epoch: 20 June)

Event Time Altitude Azimuth Distance (km) Brightness Sun altitude
Rises 20:34:14 0° 339° (NNW) 3,215 7.3 -24.1°
Reaches altitude 10° 20:36:38 10° 334° (NNW) 2,294 6.4 -23.6°
Enters shadow 20:41:35 53° 263° (W) 942 4.0 -22.4°
Exits shadow 20:49:16 - 177° (S) 3,256 7.1 -20.7°
Sets 20:49:21 0° 177° (S) 3,288 7.1 -20.7°
